SCP
0 -0 0 0 -0 -0 0 0 0 0 0 0 0 0 0 0 0 0 0 0 0 0 -0 -0 0 0 0 0 0 0 -0 0 0 0 0 0 -0 -0
0 -0 0 0 0 0 -0 0 0 0 0 0 0 0 0 0 0 0 0 0 0 -0 0 -0 0 0 0 0 0 0 0 0 0 0 -0 -0 -0 -0
0 -0 -0 -0 -0 -0 -0 -0 0 0 0 0 0 0 0 -0 0 0 0 0 0 -0 -0 0 0 0 0 0 0 0 0 0 0 -0 0 -0 -0 0
0 0 -0 -0 -0 0 -0 -0 0 0 0 0 0 0 0 0 0 0 0 0 0 0 -0 0 0 0 0 0 0 0 0 -0 0 0 -0 -0 0 0
0 0 0 -0 -0 -0 -0 0 0 0 0 0 0 0 0 0 0 0 0 0 0 0 0 0 0 0 0 0 0 0 0 0 0 -0 -0 -0 0 0
0 0 0 -0 0 0 0 0 0 0 0 0 0 0 0 0 0 0 0 0 0 0 0 0 0 0 0 0 0 0 0 0 -0 -0 0 0 0 0
-0 0 0 0 -0 -0 -0 0 0 0 0 0 0 0 0 0 0 0 0 0 0 0 0 0 0 0 0 0 0 0 -0 -0 -0 0 0 0 0 0
0 0 0 0 -0 -0 -0 -0 0 0 0 0 0 0 0 0 0 0 0 0 0 0 0 0 0 0 0 0 -0 -0 -0 -0 0 0 0 0 0 0
0 0 0 0 0 0 0 0 0 0 0 0 0 0 0 0 0 0 0 0 0 0 0 0 0 0 0 0 -0 -0 -0 0 0 0 0 0 0 0
-0 -0 0 0 0 0 0 0 0 0 0 0 0 0 0 0 0 0 0 0 0 0 0 0 0 -0 0 0 -0 -0 0 0 0 0 0 0 0 0
-0 -0 -0 -0 0 -0 -0 0 0 0 0 0 0 0 0 0 0 0 0 0 0 0 0 -0 0 0 -0 0 0 0 0 0 0 0 0 0 0 0
-0 0 -0 -0 -0 -0 0 0 0 0 0 0 0 0 0 0 0 0 0 0 -0 0 0 0 -0 0 -0 -0 0 0 0 0 0 0 0 0 0 0
0 0 0 -0 -0 -0 -0 0 0 0 0 0 0 0 0 0 0 0 0 0 -0 0 0 -0 0 -0 -0 0 0 0 0 0 0 0 0 0 0 0
0 0 -0 0 -0 -0 0 0 0 0 0 0 0 0 0 0 0 0 0 0 0 0 -0 -0 0 0 0 0 0 0 0 0 0 0 0 0 0 0
0 0 0 0 0 -0 -0 0 0 0 0 -0 0 0 0 0 0 0 0 0 -0 -0 0 -0 0 0 0 0 0 0 0 0 0 0 0 0 0 0
0 0 -0 -0 -0 -0 -0 -0 0 0 -0 -0 0 0 0 0 0 0 -0 -0 -0 -0 0 -0 0 0 0 0 0 0 0 0 0 0 0 0 0 0
0 0 0 0 0 0 0 0 0 0 0 0 0 0 0 0 -0 -0 -0 -0 0 0 0 0 -0 0 0 0 0 0 0 0 0 0 0 0 0 0
0 0 0 0 0 0 0 0 0 0 0 0 0 -0 -0 -0 -0 -0 -0 -0 -0 0 -0 0 0 0 0 0 0 0 0 0 0 0 0 0 0 0
0 0 0 0 -0 -0 -0 -0 -0 -0 -0 -0 -0 -0 -0 0 -0 -0 -0 -0 -0 0 0 0 0 0 0 0 0 0 0 0 0 0 0 0 0 0
-0 -0 -0 -0 -0 -0 -0 -0 -0 -0 -0 -0 -0 -0 0 -0 -0 -0 -0 -0 0 0 0 0 0 0 0 0 0 0 0 0 0 0 0 0 0 0
-0 -0 -0 -0 -0 -0 -0 -0 -0 -0 -0 -0 -0 -0 -0 -0 -0 -0 -0 0 0 0 0 0 0 0 0 0 0 0 0 0 0 0 0 0 0 0
0 -0 -0 -0 -0 -0 -0 -0 0 0 0 -0 -0 -0 -0 -0 -0 -0 0 0 0 0 0 0 0 0 0 0 0 0 0 0 0 0 0 0 0 0
-0 0 0 0 0 0 0 0 -0 -0 -0 -0 -0 -0 -0 0 0 0 0 0 0 0 0 0 0 0 0 0 0 0 0 0 0 0 0 0 0 0
Wind_Speed_500mb
17 21 19 23 21 22 18 28 37 33 26 28 12 24 23 32 39 48 56 73 61 66 80 78 64 60 60 57 40 27 23 20 17 16 14 12 9 5
16 21 24 21 22 22 21 33 36 40 26 41 18 38 28 34 36 43 56 69 68 74 82 81 71 61 57 48 31 24 23 21 17 13 9 7 7 9
12 18 22 23 23 18 18 37 36 41 30 34 37 38 27 28 38 32 58 72 67 71 75 62 62 58 48 48 31 23 22 20 14 12 7 10 11 13
11 6 13 28 26 26 23 36 36 38 38 46 37 39 33 31 54 53 59 67 78 74 61 63 64 43 40 42 31 22 17 17 18 12 14 13 15 18
12 11 12 18 25 27 25 34 36 40 39 45 47 44 57 68 61 57 69 75 71 64 59 55 42 39 43 39 29 28 25 17 16 15 15 16 16 16
15 14 17 19 24 27 26 29 34 41 42 57 51 45 72 70 60 86 91 75 72 67 59 40 38 39 42 35 28 21 18 18 17 16 16 15 16 19
12 16 17 21 22 23 22 23 33 45 56 63 59 66 70 79 90 94 75 75 73 62 53 46 36 41 41 35 26 19 18 18 16 15 15 17 18 16
12 17 18 18 21 24 23 24 25 45 57 70 68 73 82 91 88 78 86 87 76 58 45 49 42 41 34 30 23 21 20 18 16 16 18 19 17 16
16 14 13 14 17 15 19 15 24 47 58 68 75 78 89 82 83 87 81 74 65 56 50 47 43 37 33 28 23 21 19 19 17 18 20 19 18 17
13 7 11 18 16 17 21 22 28 38 46 60 64 74 72 83 83 81 75 61 50 55 43 45 42 34 28 23 22 21 21 19 19 20 21 20 20 21
11 11 9 15 19 21 33 36 32 47 48 45 65 70 77 84 71 67 65 50 50 49 45 31 36 29 24 21 20 22 25 23 22 22 22 22 24 23
16 16 14 11 18 25 43 47 46 41 45 55 59 71 76 61 56 54 44 39 44 45 42 26 31 25 16 21 20 22 23 23 24 22 23 25 25 24
17 19 24 21 21 25 50 49 51 51 53 60 71 78 65 47 40 39 33 35 37 21 35 26 22 21 12 5 10 14 16 17 21 24 26 28 29 30
26 26 29 31 25 31 48 52 52 52 57 59 59 54 45 42 40 36 34 32 21 20 18 14 7 6 9 11 13 14 15 16 19 23 27 32 35 32
31 30 38 34 36 37 45 55 54 52 57 54 51 54 53 47 41 43 38 26 24 24 16 11 10 15 18 19 24 26 26 25 25 25 27 30 31 28
33 39 37 38 43 44 49 51 55 43 44 52 53 47 47 47 42 41 35 26 22 20 17 20 24 28 30 33 34 37 37 30 31 31 29 29 27 26
38 39 40 44 44 48 53 55 54 50 49 47 51 47 49 47 42 37 30 27 26 23 24 24 25 32 39 43 48 45 43 45 43 40 34 28 25 20
37 40 40 44 48 52 54 53 54 55 54 51 52 54 44 41 38 35 34 35 33 29 31 34 38 43 47 50 48 51 50 50 47 42 35 33 29 24
37 36 37 38 44 47 50 48 48 47 45 49 53 54 45 37 35 35 36 38 40 37 38 42 47 46 48 53 48 44 44 41 37 42 40 35 33 28
39 37 37 38 38 40 43 44 43 41 44 45 45 44 42 40 40 41 40 41 43 45 46 45 49 47 45 42 38 40 38 37 36 41 43 43 37 31
47 43 38 38 43 45 44 42 41 44 44 45 45 45 44 45 45 44 44 45 46 50 52 52 45 40 42 44 51 51 45 38 35 39 42 42 42 42
50 52 50 47 45 45 48 47 46 45 46 48 50 49 48 50 50 50 51 52 53 53 54 49 46 46 50 53 56 58 54 43 37 41 43 47 38 43
54 54 55 56 54 54 53 54 54 53 56 56 55 54 56 59 56 55 53 54 53 52 52 51 52 54 58 60 60 59 58 50 45 46 48 50 36 24
Wind_Direction_500mb
222 215 213 229 237 220 205 198 189 169 178 176 187 188 187 197 195 198 196 191 197 187 180 185 170 168 177 174 163 167 164 165 165 173 182 181 165 218
211 218 219 218 208 217 213 194 195 185 162 177 193 169 172 178 191 187 191 183 184 181 179 173 167 167 165 159 154 170 167 168 168 180 187 216 233 255
223 227 222 211 214 200 202 185 186 193 189 167 164 161 149 163 176 156 159 172 176 178 169 166 160 165 165 153 161 179 170 175 173 192 221 249 264 287
202 210 211 211 205 205 205 188 192 194 185 158 160 162 161 156 161 152 154 168 174 174 162 157 160 157 161 154 155 175 171 192 208 218 239 265 280 286
152 141 160 171 186 192 183 178 186 188 202 170 158 163 161 160 154 159 163 158 148 148 160 152 153 163 157 158 165 188 192 204 224 238 259 273 282 276
142 126 127 131 132 155 163 175 179 181 178 166 160 158 161 159 164 159 142 140 150 162 157 161 164 160 161 167 186 191 207 219 235 255 270 269 274 277
158 146 134 148 146 162 163 170 182 179 173 165 163 167 164 159 154 150 145 151 155 150 156 152 170 164 169 183 196 206 219 232 249 255 256 268 274 268
160 156 178 188 191 189 207 203 203 188 176 166 168 170 161 157 162 160 155 156 148 165 169 172 174 176 183 191 208 213 227 238 238 249 264 266 259 251
160 158 178 164 180 186 161 170 201 192 191 182 174 177 173 176 166 159 158 163 162 167 179 171 173 180 190 202 211 221 229 229 239 257 263 255 249 250
142 130 140 144 144 151 143 151 173 178 184 184 184 182 185 167 162 160 164 166 169 164 180 170 174 184 196 206 215 222 227 237 253 263 258 253 247 251
159 134 130 142 140 153 147 140 156 164 174 178 183 177 171 158 163 162 167 172 163 168 171 187 182 188 194 207 224 231 231 244 259 265 261 255 254 260
176 174 172 156 134 153 150 142 138 156 165 158 161 159 155 161 172 176 172 173 166 169 177 182 187 190 208 231 234 236 240 252 260 264 261 257 263 275
178 177 163 164 141 143 156 150 139 145 150 156 156 159 164 165 169 177 183 174 163 172 176 173 177 189 202 237 230 239 244 264 270 262 260 265 269 274
133 137 147 163 178 152 156 154 147 150 155 156 161 165 160 157 159 160 156 161 168 127 136 185 177 218 249 261 288 295 278 274 287 275 261 265 273 281
135 134 138 133 150 145 148 163 161 155 157 158 158 161 164 162 160 161 153 162 182 197 214 216 235 262 274 291 298 303 297 290 283 276 268 272 279 282
136 134 131 134 137 144 152 163 176 180 162 163 165 158 165 173 174 177 175 180 189 204 221 248 254 260 271 282 286 281 281 277 290 294 273 265 268 278
141 141 139 144 144 151 157 166 170 178 182 177 179 170 175 181 186 191 201 215 224 235 252 262 269 264 264 269 273 282 286 284 290 287 266 270 272 302
153 147 148 153 152 154 161 167 173 182 187 185 182 184 185 190 197 207 217 228 238 246 259 268 267 265 265 269 275 282 285 283 280 270 264 265 261 272
172 163 161 159 155 156 162 162 165 168 169 179 187 196 207 215 217 227 233 239 246 251 257 259 259 257 260 266 280 281 283 286 271 253 255 248 249 258
185 187 182 180 177 173 170 170 173 181 190 195 201 209 217 223 228 233 238 245 253 257 260 258 256 259 260 278 284 282 284 282 272 257 242 236 243 256
193 195 194 194 194 193 192 190 190 196 203 207 213 219 223 227 234 242 250 257 263 262 260 262 274 280 275 272 271 277 279 277 263 252 243 232 250 272
208 205 203 201 199 203 208 211 213 218 221 226 230 232 235 238 246 254 260 261 263 263 266 268 267 268 269 271 274 271 272 270 254 234 228 246 266 291
223 220 216 215 213 211 215 222 224 227 230 234 237 240 243 246 252 257 261 264 267 269 271 273 272 273 274 274 273 269 266 263 253 241 244 257 275 261
Wind_Speed_850mb
17 21 19 23 21 22 18 28 37 33 26 28 12 24 23 32 39 48 56 73 61 66 80 78 64 60 60 57 40 27 23 20 17 16 14 12 9 5
16 21 24 21 22 22 21 33 36 40 26 41 18 38 28 34 36 43 56 69 68 74 82 81 71 61 57 48 31 24 23 21 17 13 9 7 7 9
12 18 22 23 23 18 18 37 36 41 30 34 37 38 27 28 38 32 58 72 67 71 75 62 62 58 48 48 31 23 22 20 14 12 7 10 11 13
11 6 13 28 26 26 23 36 36 38 38 46 37 39 33 31 54 53 59 67 78 74 61 63 64 43 40 42 31 22 17 17 18 12 14 13 15 18
12 11 12 18 25 27 25 34 36 40 39 45 47 44 57 68 61 57 69 75 71 64 59 55 42 39 43 39 29 28 25 17 16 15 15 16 16 16
15 14 17 19 24 27 26 29 34 41 42 57 51 45 72 70 60 86 91 75 72 67 59 40 38 39 42 35 28 21 18 18 17 16 16 15 16 19
12 16 17 21 22 23 22 23 33 45 56 63 59 66 70 79 90 94 75 75 73 62 53 46 36 41 41 35 26 19 18 18 16 15 15 17 18 16
12 17 18 18 21 24 23 24 25 45 57 70 68 73 82 91 88 78 86 87 76 58 45 49 42 41 34 30 23 21 20 18 16 16 18 19 17 16
16 14 13 14 17 15 19 15 24 47 58 68 75 78 89 82 83 87 81 74 65 56 50 47 43 37 33 28 23 21 19 19 17 18 20 19 18 17
13 7 11 18 16 17 21 22 28 38 46 60 64 74 72 83 83 81 75 61 50 55 43 45 42 34 28 23 22 21 21 19 19 20 21 20 20 21
11 11 9 15 19 21 33 36 32 47 48 45 65 70 77 84 71 67 65 50 50 49 45 31 36 29 24 21 20 22 25 23 22 22 22 22 24 23
16 16 14 11 18 25 43 47 46 41 45 55 59 71 76 61 56 54 44 39 44 45 42 26 31 25 16 21 20 22 23 23 24 22 23 25 25 24
17 19 24 21 21 25 50 49 51 51 53 60 71 78 65 47 40 39 33 35 37 21 35 26 22 21 12 5 10 14 16 17 21 24 26 28 29 30
26 26 29 31 25 31 48 52 52 52 57 59 59 54 45 42 40 36 34 32 21 20 18 14 7 6 9 11 13 14 15 16 19 23 27 32 35 32
31 30 38 34 36 37 45 55 54 52 57 54 51 54 53 47 41 43 38 26 24 24 16 11 10 15 18 19 24 26 26 25 25 25 27 30 31 28
33 39 37 38 43 44 49 51 55 43 44 52 53 47 47 47 42 41 35 26 22 20 17 20 24 28 30 33 34 37 37 30 31 31 29 29 27 26
38 39 40 44 44 48 53 55 54 50 49 47 51 47 49 47 42 37 30 27 26 23 24 24 25 32 39 43 48 45 43 45 43 40 34 28 25 20
37 40 40 44 48 52 54 53 54 55 54 51 52 54 44 41 38 35 34 35 33 29 31 34 38 43 47 50 48 51 50 50 47 42 35 33 29 24
37 36 37 38 44 47 50 48 48 47 45 49 53 54 45 37 35 35 36 38 40 37 38 42 47 46 48 53 48 44 44 41 37 42 40 35 33 28
39 37 37 38 38 40 43 44 43 41 44 45 45 44 42 40 40 41 40 41 43 45 46 45 49 47 45 42 38 40 38 37 36 41 43 43 37 31
47 43 38 38 43 45 44 42 41 44 44 45 45 45 44 45 45 44 44 45 46 50 52 52 45 40 42 44 51 51 45 38 35 39 42 42 42 42
50 52 50 47 45 45 48 47 46 45 46 48 50 49 48 50 50 50 51 52 53 53 54 49 46 46 50 53 56 58 54 43 37 41 43 47 38 43
54 54 55 56 54 54 53 54 54 53 56 56 55 54 56 59 56 55 53 54 53 52 52 51 52 54 58 60 60 59 58 50 45 46 48 50 36 24
Wind_Direction_850mb
222 215 213 229 237 220 205 198 189 169 178 176 187 188 187 197 195 198 196 191 197 187 180 185 170 168 177 174 163 167 164 165 165 173 182 181 165 218
211 218 219 218 208 217 213 194 195 185 162 177 193 169 172 178 191 187 191 183 184 181 179 173 167 167 165 159 154 170 167 168 168 180 187 216 233 255
223 227 222 211 214 200 202 185 186 193 189 167 164 161 149 163 176 156 159 172 176 178 169 166 160 165 165 153 161 179 170 175 173 192 221 249 264 287
202 210 211 211 205 205 205 188 192 194 185 158 160 162 161 156 161 152 154 168 174 174 162 157 160 157 161 154 155 175 171 192 208 218 239 265 280 286
152 141 160 171 186 192 183 178 186 188 202 170 158 163 161 160 154 159 163 158 148 148 160 152 153 163 157 158 165 188 192 204 224 238 259 273 282 276
142 126 127 131 132 155 163 175 179 181 178 166 160 158 161 159 164 159 142 140 150 162 157 161 164 160 161 167 186 191 207 219 235 255 270 269 274 277
158 146 134 148 146 162 163 170 182 179 173 165 163 167 164 159 154 150 145 151 155 150 156 152 170 164 169 183 196 206 219 232 249 255 256 268 274 268
160 156 178 188 191 189 207 203 203 188 176 166 168 170 161 157 162 160 155 156 148 165 169 172 174 176 183 191 208 213 227 238 238 249 264 266 259 251
160 158 178 164 180 186 161 170 201 192 191 182 174 177 173 176 166 159 158 163 162 167 179 171 173 180 190 202 211 221 229 229 239 257 263 255 249 250
142 130 140 144 144 151 143 151 173 178 184 184 184 182 185 167 162 160 164 166 169 164 180 170 174 184 196 206 215 222 227 237 253 263 258 253 247 251
159 134 130 142 140 153 147 140 156 164 174 178 183 177 171 158 163 162 167 172 163 168 171 187 182 188 194 207 224 231 231 244 259 265 261 255 254 260
176 174 172 156 134 153 150 142 138 156 165 158 161 159 155 161 172 176 172 173 166 169 177 182 187 190 208 231 234 236 240 252 260 264 261 257 263 275
178 177 163 164 141 143 156 150 139 145 150 156 156 159 164 165 169 177 183 174 163 172 176 173 177 189 202 237 230 239 244 264 270 262 260 265 269 274
133 137 147 163 178 152 156 154 147 150 155 156 161 165 160 157 159 160 156 161 168 127 136 185 177 218 249 261 288 295 278 274 287 275 261 265 273 281
135 134 138 133 150 145 148 163 161 155 157 158 158 161 164 162 160 161 153 162 182 197 214 216 235 262 274 291 298 303 297 290 283 276 268 272 279 282
136 134 131 134 137 144 152 163 176 180 162 163 165 158 165 173 174 177 175 180 189 204 221 248 254 260 271 282 286 281 281 277 290 294 273 265 268 278
141 141 139 144 144 151 157 166 170 178 182 177 179 170 175 181 186 191 201 215 224 235 252 262 269 264 264 269 273 282 286 284 290 287 266 270 272 302
153 147 148 153 152 154 161 167 173 182 187 185 182 184 185 190 197 207 217 228 238 246 259 268 267 265 265 269 275 282 285 283 280 270 264 265 261 272
172 163 161 159 155 156 162 162 165 168 169 179 187 196 207 215 217 227 233 239 246 251 257 259 259 257 260 266 280 281 283 286 271 253 255 248 249 258
185 187 182 180 177 173 170 170 173 181 190 195 201 209 217 223 228 233 238 245 253 257 260 258 256 259 260 278 284 282 284 282 272 257 242 236 243 256
193 195 194 194 194 193 192 190 190 196 203 207 213 219 223 227 234 242 250 257 263 262 260 262 274 280 275 272 271 277 279 277 263 252 243 232 250 272
208 205 203 201 199 203 208 211 213 218 221 226 230 232 235 238 246 254 260 261 263 263 266 268 267 268 269 271 274 271 272 270 254 234 228 246 266 291
223 220 216 215 213 211 215 222 224 227 230 234 237 240 243 246 252 257 261 264 267 269 271 273 272 273 274 274 273 269 266 263 253 241 244 257 275 261